194386 (2001 VG5) |
Classification: Apollo [NEO] SPK-ID: 2194386 |
[ hide orbit diagram ]
For accurate long-term ephemerides, please instead use our Horizons system.This orbit viewer was implemented using two-body methods, and hence should not be used for determining accurate long-term trajectories (over several years or decades) or planetary encounter circumstances.
Orbital Elements at Epoch 2459200.5 (2020-Dec-17.0) TDB
Reference: JPL 227 (heliocentric ecliptic J2000)
Element | Value | Uncertainty (1-sigma) | Units |
e | .6113446644905219 | 1.574e-08 | |
a | 2.305863739165726 | 3.0576e-09 | au |
q | .896186245184595 | 3.6542e-08 | au |
i | 13.65419568609704 | 6.3941e-06 | deg |
node | 248.5858269286036 | 1.0957e-05 | deg |
peri | 280.0330721093455 | 1.2632e-05 | deg |
M | 127.752540569091 | 3.5462e-06 | deg |
tp | 2458746.646246575830 (2019-Sep-20.14624658) | 1.2076e-05 | TDB |
period | 1278.936219231884 3.50 | 2.5438e-06 6.965e-09 | d yr |
n | .281483935310091 | 5.5988e-10 | deg/d |
Q | 3.715541233146858 | 4.9269e-09 | au |
|
| | Orbit Determination Parameters
Additional Information
|
[ show covariance matrix ]
Physical Parameter Table
Parameter |
Symbol |
Value |
Units |
Sigma |
Reference |
Notes |
absolute magnitude |
H |
16.9 |
|
n/a |
MPO418042 |
|
diameter |
diameter |
0.916 |
km |
0.521 |
urn:nasa:pds:neowise_diameters_albedos::2.0[neos] (http://adsabs.harvard.edu/abs/2017AJ....154..168M) |
|
rotation period |
rot_per |
6.38 |
h |
n/a |
LCDB (Rev. 2020-October); Warner et al., 2009 |
Published Reference List: [Polishook, D. (2009) Minor Planet Bull. 36, 104-107.] [Koehn, B.W.; Bowell, E.L.G.; Skiff, B.A.; Sanborn, J.J.; et al. (2014) Minor Planet Bull. 41, 286-300.] [Warner, B.D. (2016) Minor Planet Bull. 43, 143-154.] [Skiff, B.A.; McLelland, K.P.; Sanborn, J.; Pravec, P.; Koehn, B.W. (2019). Minor Planet Bull. 46, 458-503.] |
geometric albedo |
albedo |
0.353 |
|
0.179 |
urn:nasa:pds:neowise_diameters_albedos::2.0[neos] (http://adsabs.harvard.edu/abs/2017AJ....154..168M) |
|
SMASSII spectral type |
spec_B |
Sq |
|
n/a |
Binzel et al. (2004) Icarus 170, 259-294 |
|
|
194386 (2001 VG5) Discovered 2001-Nov-10 by LINEAR at Socorro |
Reference: 20081113/Numbers.arc | Last Updated: 2008-11-17 |
|
[ show close-approach data ]
|